Theta_e
328 330 331 331 332 330 328 327 326 327 327 325 324 324 331 340 334 334 349 351 338 338 340 341 344 345 342 343 343 345 347 349 349 345 346 347 344 343 345 346 349 351 354 356 358 360 362 363 364 365 365 366 365 364 364 364 363 364 366 366 366 365 364 362 360 355 350 344 341 339 339 339 338 337 337 336 336 337 337 337 335 336 337 338 339 340 341
327 329 331 331 332 331 331 330 328 328 328 325 324 327 331 337 337 343 355 350 340 337 336 337 340 340 339 339 339 341 343 346 348 348 346 347 349 348 346 347 348 348 350 352 352 358 362 364 364 365 365 365 366 365 364 364 364 365 365 367 367 366 365 364 362 359 354 349 344 342 340 339 338 337 337 337 337 337 337 337 336 337 339 341 342 341 342
327 329 331 331 330 331 330 330 331 330 328 326 325 326 329 334 334 336 346 346 341 337 337 339 339 335 337 339 337 337 339 344 346 347 347 351 355 355 352 349 349 350 352 354 355 359 362 363 364 364 365 365 365 365 365 365 365 364 365 367 367 367 366 365 363 362 359 355 349 344 341 339 338 337 338 339 340 339 340 339 338 339 340 342 343 345 345
326 327 329 330 330 330 328 329 331 332 328 326 326 326 327 334 335 334 338 341 343 343 340 341 341 338 339 341 338 334 336 337 338 341 344 347 350 355 357 355 352 351 353 356 359 363 363 364 364 364 364 366 365 366 366 365 366 365 366 366 367 367 367 366 365 364 362 359 355 350 344 341 338 336 337 339 341 342 343 342 341 341 341 342 343 345 348
326 325 327 329 328 328 328 329 331 333 332 330 327 326 329 334 335 335 338 343 349 347 339 337 338 339 340 341 337 334 334 333 333 336 338 340 343 346 351 355 357 356 356 356 359 363 363 362 363 363 364 365 365 365 365 366 366 366 366 367 366 367 367 366 366 365 364 362 360 356 351 345 341 338 338 340 342 344 343 343 343 343 342 342 342 345 348
324 322 325 329 328 327 331 332 332 333 333 332 328 326 327 331 333 337 344 349 351 349 343 341 341 338 337 337 334 334 333 332 332 333 334 339 343 341 341 344 348 351 354 356 357 361 363 364 363 363 363 362 363 364 365 365 366 366 366 366 367 367 367 367 367 366 365 363 362 360 357 352 348 344 342 340 341 342 343 344 345 345 344 344 344 345 348
323 326 332 333 329 330 333 333 333 334 331 332 332 332 332 333 331 334 342 344 347 347 343 340 339 337 335 334 332 331 334 338 342 340 338 338 338 338 339 338 338 341 343 345 346 349 351 356 361 362 363 363 362 363 363 364 365 365 366 365 366 366 366 366 366 366 365 365 363 362 360 358 355 350 347 344 342 343 344 345 343 343 343 344 343 343 346
324 333 338 335 330 331 332 332 334 334 333 335 334 335 338 341 338 337 338 342 344 343 338 336 336 335 332 333 336 339 344 350 354 353 353 351 349 351 352 349 347 347 341 337 341 343 344 346 350 352 355 357 360 361 362 364 364 364 365 365 365 365 365 366 366 366 366 364 363 363 361 361 359 356 351 349 345 345 345 344 343 343 343 343 344 344 345
323 328 331 331 330 332 333 333 334 332 334 337 336 337 339 342 341 341 339 337 339 337 335 335 333 333 335 341 349 354 356 357 358 359 360 360 360 361 361 359 358 357 352 350 353 353 353 352 351 352 351 349 351 354 357 361 364 363 363 364 364 363 365 365 365 365 366 365 364 363 362 362 361 359 356 353 350 349 348 346 345 344 343 342 343 344 346
321 322 326 329 328 328 331 332 333 331 331 332 335 340 341 340 339 342 342 340 341 340 337 334 331 336 345 351 354 356 358 359 358 360 360 358 357 355 352 351 353 351 348 349 353 353 352 349 349 353 356 353 351 352 352 354 358 361 363 362 363 363 363 363 364 365 365 365 364 364 364 362 362 362 359 357 355 354 351 350 348 345 344 344 344 346 348
319 322 328 329 327 328 330 331 330 331 333 330 334 343 342 338 338 343 344 342 343 344 343 338 334 341 351 354 351 351 356 359 357 357 357 356 356 352 347 347 351 351 347 342 339 340 340 336 334 341 353 358 358 356 355 353 352 355 357 359 360 362 363 361 363 364 364 365 365 365 364 364 363 363 361 360 359 357 355 354 352 350 349 349 349 349 349
320 324 327 327 328 329 328 328 330 331 332 331 341 346 342 337 336 342 343 341 341 341 342 342 342 346 351 352 349 349 353 353 354 356 356 353 352 352 350 349 351 354 354 346 337 336 343 343 338 336 342 351 357 359 359 358 356 352 351 352 355 358 362 362 361 362 363 365 366 365 365 364 363 363 362 362 361 361 360 358 355 354 354 353 353 353 353
318 323 325 324 327 329 326 327 331 331 332 338 346 344 341 335 337 342 340 340 340 340 340 342 343 345 346 346 347 348 350 350 353 357 356 353 354 356 357 354 349 347 348 344 340 344 352 355 352 347 343 342 345 353 357 359 361 358 354 352 351 352 356 360 360 361 361 363 365 365 365 365 364 363 364 363 364 364 363 362 360 358 358 357 356 357 356
316 322 327 326 327 328 325 327 329 329 337 344 341 340 338 335 337 341 339 338 340 340 341 342 342 342 342 344 346 348 349 352 354 356 356 356 356 357 359 357 353 351 351 347 345 349 353 360 364 361 356 348 341 342 348 354 360 362 359 358 355 353 354 357 359 361 361 362 364 365 365 365 364 364 364 364 366 365 365 364 363 362 361 361 360 359 360
317 321 325 328 330 329 324 326 329 330 337 339 337 336 336 334 336 337 336 337 338 340 342 342 340 341 342 343 344 346 348 350 352 353 354 353 353 354 357 356 352 354 357 355 352 351 351 361 369 366 362 360 354 345 345 349 355 361 363 361 359 357 355 356 358 360 361 362 364 364 365 365 364 364 364 364 366 366 366 365 365 364 363 362 362 362 361
318 321 325 330 333 328 323 325 328 328 332 335 333 333 332 331 332 334 334 335 336 339 341 341 340 341 342 342 342 343 345 348 349 350 351 351 352 353 356 356 353 354 358 357 358 356 350 354 366 367 363 364 363 358 355 353 356 362 363 362 361 361 359 358 359 361 361 362 363 364 365 365 365 365 365 365 366 366 367 366 366 365 364 364 364 364 363
320 323 326 328 327 323 320 323 323 324 328 331 330 330 329 328 330 331 331 332 334 337 338 340 340 341 342 342 341 341 343 346 347 348 348 350 352 352 353 355 353 354 357 357 358 359 353 353 364 368 365 365 365 365 363 361 360 363 364 363 363 362 362 361 360 361 362 362 363 364 365 365 366 366 366 366 367 368 368 367 366 366 366 366 366 366 365
320 321 322 322 320 320 320 321 321 322 325 327 327 327 326 327 328 327 328 330 332 334 336 338 339 340 340 341 340 339 341 343 345 348 348 348 350 350 352 353 352 352 355 356 357 358 357 357 363 366 365 367 367 367 367 366 364 363 364 364 364 364 363 363 362 362 363 364 364 365 365 366 367 367 367 368 368 368 368 368 367 368 367 367 368 368 367
320 321 322 320 320 319 319 320 320 321 323 325 325 325 325 326 326 326 327 328 330 332 334 336 338 340 339 340 339 337 337 341 345 347 347 348 349 348 350 352 350 350 353 356 356 356 356 358 361 362 363 365 366 368 369 368 366 365 365 364 364 364 365 365 363 363 363 365 367 368 368 368 368 367 368 368 368 368 368 368 368 368 367 368 369 368 367
318 319 320 319 318 318 318 319 320 321 323 324 323 323 324 325 325 325 326 326 327 330 332 333 336 338 339 339 339 337 337 341 345 346 346 347 349 349 349 350 349 350 354 355 355 354 354 354 357 359 361 362 363 365 367 366 366 366 366 365 365 365 366 365 365 364 365 366 368 369 369 368 368 368 368 368 368 368 368 368 368 368 368 368 368 367 367
317 318 319 319 320 319 319 318 319 320 321 321 321 322 322 323 324 324 324 324 324 326 330 332 335 337 338 339 339 338 339 341 343 344 344 344 346 348 350 350 348 349 352 354 354 354 352 350 351 355 358 359 361 362 363 363 363 365 366 366 366 365 365 365 365 366 366 367 367 368 369 368 368 369 369 369 368 367 367 367 368 367 367 366 366 366 366
317 318 319 320 319 318 319 318 317 317 318 319 320 320 321 322 323 323 323 323 323 323 326 331 334 335 337 339 339 339 340 340 340 341 342 343 345 348 350 350 349 349 351 353 353 352 350 349 350 353 354 356 360 362 364 364 363 363 365 366 366 366 367 366 366 366 366 367 367 368 368 368 367 368 369 369 369 368 368 367 366 365 365 364 364 365 365
317 317 317 317 317 317 317 317 317 317 317 318 319 320 320 321 321 320 321 323 324 323 324 328 332 335 335 337 339 339 340 339 338 339 342 344 347 350 350 350 349 349 350 351 351 350 349 348 350 351 352 353 356 360 363 365 365 365 365 365 366 368 368 367 367 366 365 366 366 367 367 367 367 367 368 367 367 367 367 366 365 365 365 365 364 364 364
315 315 315 315 316 316 316 316 316 316 317 317 318 318 318 319 319 319 321 323 324 325 323 322 327 333 334 334 335 338 340 340 339 339 341 343 346 348 350 350 349 349 350 351 350 349 348 348 349 350 350 350 353 356 360 364 365 366 367 366 367 368 366 366 366 366 365 366 366 365 365 365 364 364 365 365 364 364 364 365 365 364 364 364 364 364 363
314 314 314 314 314 315 315 315 315 316 316 317 317 317 317 318 319 320 322 322 323 324 323 319 323 331 333 331 331 333 336 338 339 339 340 343 345 347 349 350 350 350 349 350 349 349 348 348 349 349 349 349 350 353 356 359 361 363 365 367 367 367 366 366 366 365 364 365 364 363 363 363 362 363 363 363 362 361 360 359 359 358 357 357 357 356 355
313 313 313 313 314 314 315 315 316 316 316 316 317 317 317 318 318 318 319 319 319 321 322 320 322 330 333 332 331 331 332 334 337 338 339 342 345 347 348 350 350 350 350 349 349 347 347 348 348 348 348 348 350 351 352 354 356 357 360 362 364 365 366 365 364 364 364 363 362 360 359 359 359 359 359 358 358 358 355 351 349 348 347 345 343 342 341
312 312 312 313 313 313 314 315 316 316 316 316 316 316 316 316 316 316 317 318 318 320 320 318 321 330 334 333 331 331 330 331 333 336 339 342 344 346 347 349 350 350 349 349 348 347 347 347 347 346 345 346 349 350 350 351 353 354 354 356 357 360 362 362 361 361 361 360 359 356 353 351 350 349 348 347 348 346 345 342 339 338 337 336 335 334 331
311 311 312 312 313 313 314 315 315 316 316 316 316 316 316 316 316 317 317 317 318 320 320 319 323 330 334 332 331 330 329 328 330 334 338 342 344 346 348 349 349 349 348 347 346 346 345 345 345 345 344 345 347 349 349 350 350 350 350 351 351 353 355 356 356 354 353 352 350 348 346 345 344 344 343 344 343 342 340 338 337 336 336 336 334 332 330
311 311 311 312 312 313 313 314 314 315 315 316 316 316 316 316 316 317 317 317 318 320 321 322 327 332 333 332 332 331 330 329 332 336 339 343 344 346 348 348 348 348 347 347 347 347 346 345 346 346 346 346 346 347 347 348 348 347 348 349 349 349 350 351 350 349 347 346 345 344 343 343 342 341 341 341 341 341 339 338 337 337 336 336 335 334 334
313 312 312 312 313 313 314 314 314 314 315 315 315 315 316 316 317 317 317 317 317 319 320 324 330 333 332 332 333 332 332 333 336 339 341 343 344 345 346 347 347 347 347 347 347 347 346 345 344 343 344 345 346 347 347 347 347 347 346 345 344 346 347 347 346 344 344 343 342 342 342 341 340 340 340 341 342 342 341 339 338 338 337 337 339 339 339
315 314 313 313 313 314 315 315 314 315 315 315 315 315 316 316 316 317 317 317 317 318 320 325 331 333 333 333 333 334 334 336 338 339 341 342 344 345 346 346 347 347 346 346 346 346 346 345 343 342 343 342 342 344 346 346 347 347 345 341 339 339 342 343 343 341 342 342 341 340 341 341 340 340 341 341 342 342 341 341 340 340 339 339 340 340 340
317 315 314 314 314 314 315 315 315 315 315 315 315 316 316 316 316 317 317 317 318 319 321 327 332 333 332 333 334 334 335 336 337 339 340 340 341 343 344 345 345 345 345 344 343 343 344 344 344 344 345 343 340 339 341 344 345 345 344 342 340 340 342 343 342 341 342 342 341 341 341 342 342 342 341 341 341 341 341 340 340 339 340 339 339 339 339
318 317 316 316 316 316 316 316 316 315 316 316 316 316 316 316 317 317 317 318 319 319 322 329 333 332 332 333 333 333 334 336 336 336 336 335 335 336 338 340 341 341 341 340 340 340 342 343 342 343 344 344 343 342 342 342 343 343 343 343 343 342 342 343 342 341 341 342 342 341 341 342 341 341 341 341 341 341 340 340 339 339 338 339 338 338 338
317 319 319 318 317 317 317 317 316 316 316 316 316 316 316 317 317 317 317 318 319 320 323 328 331 331 331 332 333 332 333 333 331 330 330 331 331 329 329 331 333 335 336 336 335 336 339 340 339 340 341 342 343 343 343 342 343 343 342 342 341 342 341 341 341 341 341 342 342 342 342 342 341 341 340 340 340 340 340 339 339 339 338 337 337 337 337
315 317 319 320 319 319 318 317 317 316 316 316 317 317 316 317 317 317 318 319 320 322 326 328 328 328 330 331 330 330 329 327 326 326 326 326 326 326 324 324 325 328 331 331 330 332 334 336 337 338 339 340 340 340 340 340 341 341 340 339 339 339 340 340 340 340 340 340 341 341 341 341 340 340 339 339 339 339 339 339 338 338 337 337 336 336 336
312 314 315 317 318 319 319 318 318 317 317 317 317 317 317 317 317 318 319 321 323 325 326 327 327 327 328 328 327 326 325 323 323 324 324 324 324 324 323 320 319 322 327 328 327 328 331 333 335 337 337 337 337 337 336 337 337 336 336 337 337 337 337 338 338 338 337 338 338 339 339 338 338 338 338 338 338 338 338 338 338 337 337 336 336 336 336
309 311 312 313 314 316 317 317 318 318 319 319 319 319 319 320 320 320 321 323 325 325 325 325 325 325 324 323 323 323 323 322 322 323 323 323 325 326 325 322 318 318 321 323 323 324 327 330 332 334 334 333 333 334 334 334 334 334 334 334 334 334 334 335 335 335 335 335 336 335 335 335 335 335 335 335 335 335 334 334 334 334 333 333 333 333 333
308 308 309 310 311 312 313 314 315 316 317 319 320 320 320 321 322 321 322 322 322 322 322 323 322 321 320 320 321 320 320 320 320 321 322 323 326 327 325 321 317 315 317 318 320 321 323 326 328 330 330 330 330 331 332 333 333 333 332 332 332 332 332 331 331 331 331 331 331 331 330 330 330 329 329 329 329 329 329 329 329 329 329 328 328 328 328
308 308 308 308 309 309 310 311 312 312 313 314 315 316 316 317 317 318 318 318 317 316 318 319 318 317 317 317 317 316 316 317 318 319 319 320 321 322 321 318 316 314 315 316 318 319 321 323 324 326 326 327 328 329 329 330 331 331 330 330 330 329 329 328 328 327 327 327 326 326 326 326 326 326 326 326 325 325 325 325 325 326 325 325 325 326 327
307 308 308 307 307 308 308 308 309 310 310 310 311 312 313 313 313 313 313 313 312 312 313 315 315 314 313 313 313 313 313 314 315 316 317 317 318 319 318 317 316 316 316 316 317 317 319 321 322 322 323 324 325 326 327 328 329 329 328 328 327 327 326 326 325 325 324 324 324 324 324 324 323 323 323 323 322 322 322 322 323 323 323 323 325 326 327
307 307 307 307 307 307 307 307 307 307 307 308 308 309 309 311 311 311 311 311 310 309 309 310 311 310 309 310 310 310 311 312 313 314 315 316 317 316 315 314 315 316 317 317 316 316 317 318 319 320 320 320 321 322 323 325 326 326 325 324 324 323 323 323 323 323 323 323 323 322 322 322 321 321 320 320 320 320 321 321 321 322 322 322 323 324 324
307 306 306 305 305 306 306 306 306 306 306 306 306 307 307 307 308 309 310 310 310 310 309 309 309 308 307 307 307 307 307 308 309 310 311 312 312 313 312 311 312 314 316 316 317 317 316 316 316 316 317 317 317 318 319 320 321 321 321 321 322 322 321 321 321 321 320 321 321 320 321 320 320 320 319 318 318 318 319 320 320 320 320 320 320 321 322
307 307 306 306 305 305 305 304 304 305 304 304 305 305 305 305 306 306 307 308 309 309 309 310 309 309 309 309 308 307 306 305 305 305 306 307 308 309 309 310 310 311 312 314 315 316 316 315 315 315 315 315 315 315 316 315 315 315 316 317 317 318 318 318 318 319 319 319 319 319 319 319 319 319 319 319 318 317 318 318 318 318 318 319 319 319 320
307 307 307 306 306 306 305 305 304 304 304 303 303 303 303 304 304 304 305 305 306 307 308 308 309 309 309 309 309 309 309 307 306 305 304 304 305 306 306 306 307 308 309 310 311 312 313 314 314 314 314 314 314 314 313 313 312 312 312 312 312 312 312 312 313 314 315 315 315 316 316 316 316 316 317 317 316 316 316 316 316 316 317 317 318 319 319
307 307 306 306 306 307 307 306 306 306 306 305 305 304 303 303 303 304 304 304 305 305 306 307 307 308 308 308 308 308 309 309 308 307 306 305 305 306 305 305 305 305 306 306 307 307 308 310 311 313 313 313 313 313 312 311 311 310 310 309 309 309 309 309 309 309 309 309 309 310 310 310 310 310 311 311 312 312 313 313 313 314 315 315 316 317 318
310 308 307 306 306 307 307 307 307 307 307 307 307 306 306 305 305 305 305 305 305 305 305 305 305 306 307 307 307 307 308 308 308 308 308 307 306 306 307 307 306 305 305 305 305 305 305 306 308 309 310 311 311 312 311 310 309 309 309 309 308 308 308 307 307 307 307 307 307 306 306 306 305 305 305 305 306 306 307 308 309 310 311 312 312 313 314
311 311 310 309 309 308 308 308 307 307 307 307 307 307 306 306 306 306 306 305 305 305 305 305 305 305 305 306 306 306 306 307 307 307 307 307 307 307 306 306 306 306 305 305 305 305 305 305 305 305 306 306 306 307 307 307 307 307 307 307 307 307 307 307 307 306 306 306 305 305 305 304 304 303 303 303 303 303 303 304 304 305 306 307 308 309 310
311 310 310 310 310 310 310 309 308 308 307 307 307 307 306 306 306 306 305 305 305 305 305 305 305 305 306 306 305 305 305 306 306 306 307 307 307 307 307 306 305 305 305 305 305 305 305 305 304 304 304 304 304 304 304 305 305 305 304 304 305 305 305 305 305 304 304 304 304 304 303 303 303 303 303 303 303 302 302 302 302 302 302 302 301 302 303
310 310 310 310 310 310 310 309 309 309 308 308 308 307 307 307 306 306 305 305 305 305 305 305 305 305 305 305 305 305 305 305 305 305 305 306 306 306 306 306 305 305 305 305 304 304 304 304 304 304 304 304 304 304 303 304 304 304 304 304 304 304 304 304 304 304 304 304 303 303 303 303 302 302 302 302 302 302 302 302 302 301 301 300 298 297 297
309 309 309 309 308 308 308 308 308 308 308 307 307 307 307 306 306 306 305 305 305 305 304 304 304 304 304 304 305 305 305 305 305 305 305 305 306 305 305 305 305 304 304 303 304 304 304 303 303 303 303 303 303 303 303 302 303 303 303 303 303 303 303 303 303 303 303 303 303 303 302 302 302 302 302 302 302 301 301 301 301 300 300 300 299 297 295
308 309 308 308 308 308 308 307 307 307 307 306 306 306 306 305 305 305 305 305 305 304 303 303 303 304 304 304 304 304 305 304 304 304 304 305 305 304 304 304 304 303 303 302 302 303 303 303 302 302 302 302 302 302 302 302 301 301 302 302 302 302 302 302 302 302 302 302 302 302 301 301 301 301 301 301 301 301 300 300 300 299 299 299 299 297 294
307 307 308 308 307 307 307 307 306 306 306 306 305 305 305 304 304 303 303 303 304 304 303 302 302 303 303 303 303 303 303 303 303 303 303 304 303 303 303 303 302 302 302 301 301 302 302 302 302 302 301 301 301 301 301 301 301 301 301 301 301 301 301 301 301 301 301 301 301 300 301 300 300 300 300 300 300 300 299 299 299 299 298 298 298 297 295
Wind_Speed
14 13 14 13 9 6 12 17 16 14 19 22 17 9 9 9 7 5 7 11 10 7 6 5 6 7 6 8 14 17 18 19 20 32 40 37 33 29 30 40 47 47 48 48 47 47 47 47 46 45 44 45 45 44 44 44 43 42 42 42 44 45 46 48 50 51 50 49 48 48 47 47 46 45 44 44 43 42 42 41 40 40 39 39 39 39 38
14 11 10 13 11 6 1 9 17 16 16 22 20 11 9 11 9 7 8 11 10 7 6 6 6 7 11 16 19 20 21 23 23 24 30 29 25 22 25 35 42 44 47 48 48 47 47 47 47 45 44 44 45 45 44 44 43 43 42 42 43 44 46 47 48 48 48 48 48 48 48 48 46 45 44 44 43 43 43 42 41 40 39 39 39 40 40
8 8 7 12 13 7 4 3 9 12 12 18 20 16 10 8 9 9 8 10 7 6 7 5 3 10 16 16 16 17 20 24 26 25 24 24 26 25 25 31 35 37 40 43 44 45 46 47 46 44 43 43 44 44 44 44 44 43 43 43 44 45 46 46 46 46 47 47 48 48 48 47 47 45 45 44 44 44 43 42 42 41 40 39 39 40 39
6 7 6 11 13 8 7 6 4 3 4 9 17 16 10 7 10 10 7 7 5 6 7 6 8 11 11 10 11 15 18 21 24 22 21 24 28 28 26 28 29 30 33 36 37 39 42 43 44 42 41 40 42 43 43 43 43 43 43 44 44 45 45 45 45 46 46 45 46 47 48 47 47 45 45 45 45 44 44 43 42 41 41 40 40 39 39
7 10 11 11 9 7 5 5 2 2 3 5 12 17 12 6 9 9 6 5 6 6 9 11 11 12 11 10 12 17 21 24 25 21 16 19 25 27 27 26 25 25 28 30 32 33 36 39 40 40 39 38 38 40 41 41 42 42 44 44 44 44 44 45 45 45 45 44 44 45 46 47 46 46 46 46 45 45 45 44 43 42 42 41 40 40 40
7 13 14 8 4 4 3 1 2 1 3 6 5 13 14 10 6 6 6 6 4 8 10 9 11 12 13 16 18 21 21 21 21 20 17 15 18 22 24 24 22 22 23 24 26 27 29 32 34 35 36 35 34 35 37 39 40 41 43 44 44 44 44 44 45 44 44 44 44 44 44 44 46 46 47 46 45 45 45 44 44 44 43 42 41 41 41
6 9 9 3 1 4 4 3 4 2 1 2 5 8 3 6 6 6 10 8 5 10 10 10 13 17 23 26 24 22 21 23 23 19 16 13 11 14 17 18 18 19 20 21 22 21 22 24 26 29 31 32 32 32 33 36 39 40 41 42 44 44 43 44 45 45 45 44 44 43 43 43 44 46 46 46 45 45 45 45 45 44 44 44 43 42 42
4 4 3 0 2 6 7 4 4 3 1 2 7 13 15 13 10 2 10 11 8 10 11 14 18 25 31 31 27 26 27 29 29 26 24 21 18 17 17 17 15 16 18 18 17 16 16 16 18 21 23 27 29 30 31 33 36 38 40 41 42 43 43 43 44 45 46 45 44 43 42 42 43 44 45 46 45 44 45 45 45 45 45 44 44 44 43
3 4 4 2 4 6 6 4 6 4 1 3 6 8 12 19 21 12 3 13 13 10 13 18 23 28 28 21 22 29 31 30 30 30 29 28 26 25 24 22 20 19 19 18 17 16 16 16 16 17 19 21 24 26 29 33 34 35 37 40 41 43 43 42 41 43 45 45 44 43 42 43 43 43 44 44 44 44 44 45 45 45 45 45 45 44 44
4 5 4 3 2 1 5 12 14 11 4 5 9 10 10 16 23 21 11 9 12 9 11 16 20 23 19 9 11 23 26 25 28 28 26 24 23 22 20 19 19 17 17 17 16 17 17 16 16 17 18 21 23 23 25 28 32 34 36 38 39 41 43 42 40 40 42 44 45 44 43 43 43 42 42 42 43 43 44 45 45 45 45 45 45 45 45
5 4 2 3 1 1 10 16 18 19 13 6 10 10 10 13 19 23 20 16 16 12 11 14 13 13 11 4 7 18 23 22 23 23 23 21 18 17 17 16 15 12 11 10 10 11 11 12 15 18 20 20 22 25 25 25 28 31 35 38 39 40 41 41 40 38 39 41 44 44 43 43 42 41 41 41 41 41 43 44 44 44 44 44 45 45 45
4 4 3 3 1 3 13 16 17 25 21 6 9 8 6 11 17 21 22 20 19 18 18 19 13 8 8 6 10 19 23 22 21 19 19 19 17 16 15 14 13 10 7 7 6 5 4 3 8 14 20 21 21 24 25 26 27 29 30 32 35 37 39 40 40 39 37 38 41 42 43 42 40 40 39 39 39 39 40 41 42 42 42 43 43 43 43
5 5 3 3 0 4 14 16 20 27 18 5 10 5 3 13 16 20 24 23 22 23 23 20 14 13 16 16 18 23 24 23 22 19 18 19 19 16 13 12 12 10 9 11 9 7 5 2 1 5 12 19 22 22 21 23 27 29 28 27 27 31 35 38 39 38 36 36 38 39 41 40 39 38 38 38 37 37 38 39 40 40 40 41 41 41 40
5 4 2 2 1 8 18 18 22 26 12 4 4 1 5 11 16 21 25 25 24 25 25 23 20 21 24 24 24 25 25 25 23 20 18 17 18 17 14 11 11 12 12 11 7 4 2 2 2 1 5 11 17 21 21 22 23 24 26 27 25 26 29 33 36 37 35 34 35 36 38 38 37 37 37 36 35 35 36 37 38 38 39 39 39 39 38
3 3 2 2 1 9 22 19 16 19 9 5 2 3 6 15 21 22 24 26 26 23 23 25 24 24 26 27 25 24 24 24 23 21 19 16 15 15 13 11 10 10 11 10 7 4 2 2 3 2 4 6 9 14 18 21 21 19 20 24 25 24 25 28 32 34 34 32 33 34 36 36 35 35 34 34 33 33 34 35 35 36 37 36 36 36 36
2 1 2 2 5 6 19 17 9 10 10 11 10 10 12 17 22 23 23 25 28 26 22 22 23 25 26 25 24 24 23 22 21 20 19 18 15 13 11 10 8 7 7 8 7 6 3 3 4 3 4 6 6 8 12 16 17 15 16 19 22 22 22 24 27 30 31 30 30 31 33 33 33 32 32 31 31 32 32 32 33 34 34 34 33 32 32
3 2 2 2 4 8 17 16 12 13 16 17 17 17 16 18 22 24 24 24 26 27 25 22 23 24 24 24 23 23 22 21 20 19 18 16 14 11 10 10 6 3 4 6 4 4 2 2 5 4 4 6 7 9 11 13 14 14 14 16 18 18 19 20 23 26 27 27 28 29 29 30 30 30 30 29 29 30 30 31 31 31 31 30 29 27 27
4 3 4 1 6 13 15 14 14 16 16 16 18 19 19 21 22 22 23 24 25 26 27 27 25 23 22 22 22 22 21 20 19 18 17 15 13 11 10 11 9 3 2 4 5 5 2 2 5 3 3 7 9 10 11 12 14 16 16 16 16 16 17 18 20 23 25 25 25 25 25 26 27 27 28 28 27 27 29 29 29 29 29 28 26 25 24
3 2 2 4 8 12 14 14 15 15 14 15 16 16 15 18 20 21 22 22 23 25 26 27 26 24 23 22 22 21 21 19 19 18 16 14 14 13 11 12 11 6 2 4 5 6 5 5 5 3 1 4 7 8 10 11 12 14 15 16 16 16 16 17 18 21 23 23 22 22 22 23 24 24 25 26 26 26 27 28 28 27 27 26 24 23 23
4 3 6 10 10 10 13 15 12 12 15 15 15 15 13 13 15 18 20 20 22 24 24 24 24 23 22 22 22 21 20 19 18 16 14 12 12 13 12 12 11 7 3 4 6 6 7 6 7 5 2 2 5 7 9 12 13 12 13 14 15 15 16 18 19 20 22 22 21 21 22 22 22 22 23 23 24 25 26 27 27 26 26 25 23 21 21
6 5 6 8 8 7 9 12 13 14 14 14 14 15 14 13 13 15 16 17 18 19 20 21 20 20 19 20 20 18 17 18 16 14 13 13 12 11 11 11 11 8 5 4 5 5 5 6 6 6 4 4 5 6 9 12 12 11 12 13 14 15 16 17 19 20 21 21 22 23 24 24 23 22 23 22 22 23 24 24 25 24 24 24 24 22 21
4 4 5 8 6 4 6 13 18 16 12 11 12 12 12 12 12 13 14 14 14 15 16 17 17 16 16 17 18 15 14 14 14 13 14 14 12 10 10 11 10 8 6 6 6 5 6 6 3 3 5 6 5 5 7 10 11 11 13 14 15 16 16 17 19 21 21 22 23 23 24 24 23 23 23 22 21 22 22 22 21 22 22 23 23 23 22
6 10 15 17 12 7 8 14 16 13 11 11 11 10 9 9 10 11 12 12 13 13 13 14 14 14 14 14 14 13 12 13 12 11 13 14 12 11 10 10 10 8 5 5 6 6 6 5 3 3 4 6 5 5 6 9 10 12 14 15 15 16 17 18 19 21 22 23 23 23 24 23 23 24 25 23 21 21 21 20 19 19 20 21 22 22 22
10 16 22 24 20 16 16 19 18 15 14 12 10 10 10 9 10 10 8 8 9 11 11 12 12 12 12 12 12 11 10 11 11 12 13 13 11 10 10 10 9 7 4 4 5 5 3 1 1 1 2 4 6 6 7 9 11 12 14 15 16 17 18 18 18 19 20 20 20 22 24 23 22 23 25 24 21 20 20 19 18 17 17 17 18 17 16
16 21 26 27 25 24 24 21 18 18 17 14 13 12 10 9 8 7 7 8 8 9 11 12 11 10 11 12 14 12 11 10 11 12 13 13 11 10 11 10 8 7 6 5 4 2 1 2 2 2 2 4 5 6 8 9 11 12 14 16 18 19 20 20 18 17 17 18 18 20 22 21 20 21 23 24 23 21 19 17 15 13 12 10 10 11 11
26 27 29 30 30 30 26 21 18 17 15 13 14 13 10 9 10 10 11 12 11 10 12 12 11 11 11 12 13 13 13 13 12 12 13 12 10 10 11 10 8 7 6 4 3 3 3 4 4 3 3 4 5 6 7 9 10 11 13 15 17 18 19 20 19 18 18 18 19 19 18 17 17 17 16 17 18 18 18 16 14 12 10 9 9 8 8
34 31 27 24 26 27 22 18 18 18 16 15 17 18 16 16 16 15 16 15 13 13 13 12 11 11 12 13 14 15 15 15 14 14 13 11 11 12 13 11 8 7 6 5 5 5 5 5 4 2 2 5 6 6 7 9 10 11 12 13 14 16 17 18 19 19 19 19 19 18 17 16 16 16 15 14 13 13 13 13 13 12 11 10 9 8 7
37 35 29 24 26 27 22 18 18 18 18 17 17 18 19 19 17 17 17 16 15 15 15 13 11 10 12 14 15 16 17 17 16 15 13 12 12 12 13 11 9 8 7 6 6 7 6 4 3 4 6 7 8 8 8 10 11 12 13 14 14 16 17 18 19 21 22 21 21 20 20 19 18 17 16 16 15 14 13 11 10 10 9 8 7 6 5
36 35 33 33 35 33 28 25 25 24 21 19 18 18 19 20 20 20 20 19 18 18 16 13 10 10 12 12 13 15 17 17 14 13 13 12 12 12 12 11 10 10 10 9 9 8 8 8 8 8 9 9 10 10 12 13 14 15 15 14 15 15 17 19 21 22 23 23 23 23 23 21 20 19 18 16 14 13 12 10 9 8 6 3 2 3 3
31 32 33 33 32 29 28 29 30 28 24 21 19 19 19 19 20 22 22 21 21 20 18 14 11 12 13 12 12 12 13 12 11 11 12 12 12 13 13 12 14 14 13 12 11 12 12 13 13 12 11 11 10 10 11 14 16 16 15 13 13 14 16 19 21 21 21 21 20 20 19 18 18 18 17 16 14 11 9 9 8 7 6 5 4 3 2
22 23 27 31 29 26 27 28 29 28 26 22 20 20 20 19 20 20 20 20 21 20 19 15 12 11 10 10 10 10 9 9 9 9 10 9 11 14 15 16 18 19 17 15 14 14 14 15 15 15 14 13 13 11 11 13 15 16 16 16 17 19 19 20 20 20 20 20 20 19 19 17 17 16 16 15 13 12 11 10 9 6 5 3 2 2 1
13 15 19 24 26 26 26 26 26 27 25 22 21 21 21 20 19 19 19 19 18 18 18 16 13 10 8 7 7 6 5 6 7 7 7 4 4 8 16 21 22 21 20 19 17 16 17 17 17 15 14 15 16 15 14 14 16 18 19 19 20 21 20 19 20 20 20 22 22 22 21 21 21 20 18 16 14 13 12 12 11 9 7 6 5 5 3
5 10 16 20 21 23 24 24 25 25 24 23 22 21 21 20 19 19 19 19 18 19 18 14 10 8 5 3 2 2 3 6 5 3 2 2 5 6 10 19 23 23 23 22 22 22 21 19 18 17 16 17 18 18 19 19 19 19 19 19 19 20 21 21 21 21 20 21 21 20 20 20 20 19 18 16 14 12 11 12 12 12 12 12 10 8 6
24 9 8 18 20 20 20 21 22 23 22 22 21 20 20 20 19 19 20 19 18 20 16 8 7 9 8 7 8 8 8 8 9 11 10 10 12 16 17 19 23 27 29 27 25 24 24 21 19 21 20 19 18 19 21 21 19 17 17 17 19 21 22 22 22 21 19 19 18 17 17 16 16 15 15 14 13 11 10 10 11 11 11 12 11 8 5
40 32 17 5 9 12 13 14 16 17 18 19 19 19 19 20 20 21 20 18 19 20 15 12 16 16 14 14 14 15 15 17 20 21 20 19 17 17 21 23 23 27 35 32 27 25 25 23 23 25 25 23 22 21 21 21 20 19 18 19 20 21 21 20 20 19 18 16 15 14 14 13 12 12 11 11 11 11 10 10 10 9 8 8 7 6 4
47 44 38 30 19 9 4 7 10 13 14 14 16 18 19 21 21 20 18 16 17 16 16 21 22 22 21 21 22 23 23 25 25 24 24 24 21 19 22 25 26 27 37 38 30 27 26 24 24 25 26 25 25 24 23 23 24 24 22 21 20 19 18 17 17 16 15 13 12 11 11 9 8 8 8 8 8 8 9 9 9 8 8 7 6 5 4
48 46 45 44 41 33 25 17 9 6 6 8 11 15 17 16 16 16 16 14 14 21 27 27 25 26 27 28 28 27 26 26 25 24 23 22 20 21 24 24 30 34 40 40 32 28 27 25 24 25 25 25 25 25 24 24 25 24 22 21 19 18 16 15 15 14 12 10 9 8 7 6 5 5 5 5 6 6 6 6 6 5 5 5 6 6 6
48 48 47 47 47 46 43 40 35 30 23 18 12 7 7 8 8 8 10 12 17 28 34 31 29 31 32 31 31 30 28 26 26 25 23 20 16 18 24 27 33 39 40 36 31 30 29 26 26 27 27 27 27 26 25 24 23 22 21 19 18 16 15 14 13 13 11 9 7 6 6 6 6 5 5 5 4 4 4 3 1 0 1 3 4 4 5
46 47 48 48 48 48 47 46 46 44 41 38 35 32 30 29 27 25 25 25 25 31 37 38 36 36 36 35 35 35 32 31 29 29 30 29 26 26 30 31 32 35 35 32 30 31 30 28 28 30 29 27 26 25 23 22 20 20 19 18 17 16 15 14 13 14 13 12 12 12 13 13 13 12 12 12 11 10 9 8 7 7 6 6 5 5 4
43 44 45 46 46 47 47 47 46 45 46 47 46 43 40 38 36 36 36 33 31 34 40 42 40 39 39 39 39 38 35 34 33 33 33 34 33 33 35 32 28 28 30 31 31 31 29 27 29 30 29 26 24 21 20 18 17 17 18 17 16 16 15 14 13 14 15 16 16 16 17 17 17 17 16 15 14 13 13 12 12 11 11 9 8 7 5
38 41 42 42 42 43 44 44 44 44 46 47 46 44 44 43 40 38 37 35 34 38 41 42 42 42 41 40 40 39 36 35 35 33 32 32 32 34 36 34 27 23 23 25 27 29 29 29 29 30 29 28 25 21 18 16 15 15 16 16 16 16 15 15 15 16 17 17 18 18 17 17 18 19 19 18 17 16 15 14 14 14 13 11 10 8 7
32 35 38 39 40 41 41 42 43 44 44 43 42 41 42 42 40 39 38 37 36 39 40 40 40 40 39 39 39 39 37 36 35 34 34 34 33 34 34 32 27 22 20 20 22 24 27 29 30 30 29 29 27 24 22 20 19 18 18 18 17 18 18 18 19 19 18 18 18 18 18 18 18 18 19 19 19 18 17 16 16 15 15 14 13 11 9
28 29 31 33 36 38 39 39 41 42 41 40 38 38 38 37 37 37 39 39 40 40 38 36 35 36 37 37 37 38 37 36 36 36 36 34 32 31 30 28 24 22 21 22 22 21 22 24 26 26 27 27 27 26 25 26 26 25 24 24 24 24 24 23 22 21 20 20 19 19 18 18 17 17 17 18 19 18 18 18 17 17 16 16 15 14 13
25 26 26 27 28 30 33 34 36 37 38 37 36 37 37 36 35 36 37 38 38 37 36 34 34 35 36 36 36 36 35 34 34 35 36 35 32 29 26 24 23 22 21 22 23 22 21 20 20 20 21 22 24 25 26 27 28 28 27 27 27 26 26 26 26 24 23 23 22 21 20 19 19 19 19 18 18 18 18 18 18 17 17 16 16 15 15
19 21 23 24 25 26 27 28 29 30 32 32 33 34 35 34 34 34 34 34 33 32 32 32 33 34 34 35 35 34 33 32 32 32 33 33 32 29 25 24 25 24 22 21 23 23 22 20 18 17 16 17 18 21 23 25 26 27 27 27 26 26 25 25 24 24 23 23 22 22 22 22 22 22 21 20 19 18 18 18 17 17 17 17 17 17 16
15 15 17 20 22 23 24 24 25 25 26 27 28 29 30 30 31 31 31 31 30 29 28 28 29 30 31 30 30 30 30 30 30 28 28 28 27 25 23 24 26 25 23 23 24 24 22 19 17 16 16 15 15 16 19 21 22 23 24 24 25 25 25 24 24 23 22 21 21 20 20 21 22 22 21 20 19 19 18 18 17 17 17 17 17 17 17
17 15 14 15 16 17 18 20 22 23 24 25 25 25 25 25 26 27 27 27 28 28 27 26 25 26 26 27 27 27 27 27 27 25 23 23 23 21 20 21 24 26 26 26 25 24 22 20 19 18 17 17 17 18 19 20 21 22 22 22 22 22 22 21 21 21 20 20 20 19 18 18 19 20 20 20 19 18 17 17 17 17 17 17 17 16 16
17 17 16 15 15 14 15 16 18 20 22 23 22 22 21 21 22 22 23 23 24 24 25 24 24 23 23 24 25 24 23 24 24 23 21 20 20 20 19 18 18 19 21 23 23 22 21 21 21 21 20 20 20 20 19 20 21 23 23 23 23 23 22 21 20 20 21 21 21 21 20 21 22 22 22 22 21 19 18 17 17 17 17 17 17 17 16
14 16 16 16 17 17 16 16 17 17 18 19 19 19 18 19 19 19 19 19 19 20 21 21 22 22 22 22 22 21 21 20 20 20 19 18 17 17 17 16 15 14 16 18 20 20 19 19 20 21 21 22 22 21 20 19 20 22 23 23 23 22 22 22 21 21 21 21 22 22 22 22 23 24 23 22 20 19 20 19 18 17 16 16 16 17 17
15 15 16 17 17 18 18 18 17 17 17 17 17 16 16 18 20 19 18 16 16 17 18 17 17 18 18 18 17 17 18 19 18 18 17 17 16 15 15 15 16 15 15 16 18 19 19 19 19 18 19 19 20 20 20 19 19 19 21 22 22 22 21 21 20 19 18 19 19 19 19 19 19 20 20 18 17 18 19 19 19 18 17 16 16 16 17
15 14 15 16 16 16 17 17 16 16 16 16 15 14 14 16 17 18 17 16 16 16 17 17 16 14 15 16 16 14 13 14 15 15 15 16 17 17 17 17 16 15 15 16 17 18 19 19 19 18 18 19 19 19 19 19 20 19 19 20 20 20 20 20 21 21 19 17 17 18 18 18 18 19 18 17 16 17 18 18 18 18 18 18 17 17 17
16 15 14 14 15 15 16 16 15 15 15 15 15 14 14 14 15 16 16 16 14 13 15 17 17 14 13 15 18 17 14 13 12 11 11 13 15 17 17 17 16 15 16 17 17 17 17 17 18 19 18 18 19 19 19 19 19 19 20 20 20 19 19 18 19 20 20 19 18 18 18 18 19 18 17 16 16 17 17 17 17 17 16 16 17 18 17
Wind_Direction
288 277 286 291 274 212 178 190 210 205 193 207 215 192 171 159 148 207 203 157 159 201 209 196 197 185 161 133 121 113 106 106 136 166 175 180 184 181 176 176 179 182 186 189 193 197 199 199 199 201 202 203 203 205 207 209 211 214 216 218 219 220 221 222 223 225 226 226 227 228 229 229 230 230 230 230 230 231 232 234 236 237 237 237 238 240 242
297 294 300 301 293 285 213 194 209 216 202 198 209 214 184 162 166 194 176 156 168 183 173 188 200 159 130 127 120 109 108 108 113 141 161 163 162 166 174 177 179 182 186 189 193 196 197 197 198 200 201 202 203 205 206 209 210 212 215 217 219 219 220 222 224 225 226 226 226 226 227 229 230 230 230 230 229 230 232 235 237 238 237 237 238 239 240
304 307 309 302 296 285 297 250 204 219 216 194 199 217 210 163 170 192 161 146 172 178 160 169 138 114 113 115 111 104 112 115 112 120 133 132 131 142 162 174 177 181 185 188 192 194 194 195 197 199 201 202 203 205 206 209 211 212 214 217 219 220 221 223 224 225 226 226 225 226 227 228 230 230 230 230 229 230 231 233 236 237 237 238 238 238 239
316 329 317 290 299 309 290 269 219 217 247 201 191 205 219 180 170 181 147 137 196 193 141 107 88 95 95 91 92 93 94 93 96 112 130 135 133 135 147 163 172 179 184 189 193 193 192 194 196 197 200 202 204 206 208 210 211 212 214 217 220 221 222 223 225 226 226 226 226 226 227 227 229 230 231 230 230 229 230 232 234 236 237 239 240 239 239
310 329 319 284 298 328 289 255 217 84 332 269 198 193 212 199 163 168 165 182 205 157 117 103 95 89 81 78 76 76 76 73 73 80 101 132 143 142 145 155 165 174 181 187 191 192 191 194 197 199 202 205 207 209 210 211 213 213 214 217 220 223 223 223 225 226 227 228 228 227 227 227 228 229 230 230 230 229 231 232 232 234 237 239 241 240 239
300 315 317 304 313 312 262 268 24 77 325 309 213 185 202 211 176 143 160 194 168 103 103 117 116 102 95 92 78 70 71 67 63 64 72 98 127 138 144 150 156 163 170 174 181 188 192 197 200 201 204 208 211 213 214 214 215 215 216 217 220 223 224 224 225 227 228 229 230 230 229 228 227 228 229 230 230 230 231 231 231 233 236 238 240 241 240
291 312 328 336 310 276 271 317 335 306 294 6 63 85 106 242 230 157 153 170 131 96 95 101 105 100 94 88 74 63 63 62 61 60 59 72 107 130 141 150 157 164 168 168 174 183 190 194 199 202 205 210 213 215 216 217 217 218 219 219 220 223 225 225 225 226 227 229 231 232 232 230 228 228 229 230 231 230 230 230 232 234 236 237 239 241 242
297 326 351 246 272 294 297 317 346 346 351 76 74 60 34 360 329 253 163 150 119 103 98 91 93 92 85 75 60 55 61 66 67 65 62 72 93 107 116 130 145 162 171 168 168 175 180 185 193 200 206 212 215 217 218 218 219 220 221 221 222 224 226 227 226 226 227 228 230 231 232 231 231 230 230 230 231 231 230 231 233 234 236 237 239 241 242
334 331 312 288 307 311 309 339 357 335 285 88 86 73 31 6 354 344 140 131 115 109 101 92 91 88 80 67 52 54 61 67 70 72 71 76 88 95 100 111 122 139 156 163 167 174 179 183 189 198 206 211 215 219 221 221 221 221 222 223 224 225 226 228 228 227 227 227 229 230 231 232 232 232 232 232 231 231 231 231 231 233 235 237 238 239 240
332 324 308 298 303 343 349 346 338 322 322 83 86 76 38 3 356 356 9 78 86 93 103 100 97 85 71 56 46 53 59 64 67 72 71 69 77 84 87 96 106 120 139 151 163 173 178 182 186 193 201 208 214 219 222 224 223 223 225 225 226 226 227 229 230 230 229 227 227 229 231 232 234 233 233 234 233 232 232 232 232 233 234 236 237 238 239
305 308 308 306 264 43 350 342 334 324 330 49 87 69 35 350 348 1 12 33 43 47 73 89 95 85 72 59 40 50 59 62 60 66 68 61 60 61 61 71 80 90 108 124 147 171 186 196 196 194 194 199 210 217 222 227 226 226 227 228 228 228 229 230 231 231 231 229 228 228 230 232 234 234 235 235 235 234 234 234 235 234 234 235 236 238 239
282 269 276 306 217 10 338 337 337 325 322 14 81 70 31 329 336 4 20 30 33 34 54 69 71 73 81 73 47 54 64 62 54 55 56 50 46 41 40 46 52 57 66 65 80 118 144 204 211 205 200 199 204 212 219 224 228 230 231 230 230 231 230 231 232 232 233 231 229 229 229 230 233 235 236 236 235 235 236 236 236 236 235 236 237 238 240
275 254 258 294 242 7 337 336 349 339 329 39 72 71 283 304 333 14 27 31 32 30 43 59 62 61 66 64 59 59 60 59 59 59 57 57 58 51 41 35 32 22 10 15 38 75 89 83 248 230 221 215 213 215 218 223 228 234 237 235 234 233 232 232 232 232 233 232 230 230 230 230 232 234 236 236 236 236 236 236 237 237 237 237 238 239 241
284 265 281 314 346 358 341 343 7 7 3 100 73 329 280 327 359 21 24 26 32 34 43 52 55 56 56 55 57 57 55 57 59 59 61 67 67 56 37 22 20 15 5 6 27 73 120 171 180 239 250 236 227 224 224 225 228 234 238 237 236 234 233 233 232 232 233 232 229 229 229 229 230 232 235 237 237 237 237 237 238 238 238 238 238 239 241
280 263 327 27 171 337 343 352 18 24 33 120 89 356 10 20 22 22 18 19 23 33 47 51 46 47 48 47 49 50 51 53 52 50 52 54 56 51 30 10 18 22 7 359 353 329 285 196 182 212 245 253 244 232 229 230 231 234 235 234 234 233 232 233 233 232 232 231 229 227 227 228 229 231 234 236 237 237 237 237 237 237 238 239 239 239 239
324 274 23 56 210 316 357 7 23 37 56 77 64 43 30 26 26 23 17 16 19 29 46 51 46 43 41 39 40 40 42 43 42 43 44 41 44 45 21 6 27 36 13 1 350 336 321 209 201 213 225 234 241 233 227 226 227 228 230 229 229 228 228 231 232 231 230 229 228 225 225 227 228 231 233 235 236 237 236 236 236 236 237 238 238 237 237
333 286 244 254 277 344 12 16 13 28 49 57 53 47 33 24 26 25 17 12 16 24 32 40 45 45 40 36 33 32 33 36 35 35 34 34 39 34 9 356 5 35 32 16 334 315 341 183 191 193 197 204 211 217 217 215 213 211 212 217 220 221 222 224 227 228 227 226 225 224 224 226 228 230 231 232 233 234 234 233 233 234 235 235 235 235 235
335 293 233 220 354 350 357 4 6 16 36 48 49 45 32 22 24 23 17 14 17 20 23 28 34 37 34 31 28 25 24 29 32 28 23 21 20 15 1 351 343 323 8 9 322 285 279 183 182 183 182 188 198 206 205 205 208 208 206 209 213 217 218 219 221 223 223 222 221 221 223 226 228 230 230 231 230 230 230 230 231 232 232 232 232 232 231
348 332 304 5 6 348 340 343 356 13 33 46 47 43 33 25 24 21 16 15 17 19 21 22 24 25 23 20 20 19 18 21 22 19 15 11 6 358 347 342 341 330 316 354 334 292 266 225 204 207 185 188 203 204 195 193 199 203 205 208 210 212 212 212 214 216 218 217 215 215 217 220 224 227 229 230 229 227 226 225 225 226 227 227 226 226 225
320 308 316 321 322 322 316 314 336 26 51 52 44 39 33 25 22 21 17 14 15 18 19 18 18 20 19 16 14 14 15 15 12 8 3 356 352 349 339 330 333 334 331 345 333 303 287 263 238 237 239 207 208 206 201 200 196 193 195 199 200 200 202 204 207 209 211 212 209 206 207 210 214 218 222 224 224 223 223 222 221 221 221 222 223 223 222
308 303 317 320 312 312 322 335 1 31 47 47 41 37 30 21 17 15 13 10 9 13 16 15 12 13 16 14 9 9 10 6 358 352 346 336 331 336 333 323 322 324 319 322 321 315 319 308 268 244 243 235 213 199 200 202 199 198 195 191 191 195 198 201 203 202 201 204 204 200 199 201 204 207 210 213 215 217 218 219 220 220 219 219 221 222 220
294 292 333 359 350 302 328 358 6 9 10 17 27 31 30 29 23 13 5 1 359 4 14 16 8 4 9 9 6 6 3 350 340 336 334 328 325 328 325 314 311 311 303 299 302 308 322 325 302 250 246 236 210 188 187 190 195 200 196 189 187 189 192 196 198 196 195 197 199 198 198 200 202 201 201 204 210 214 215 215 217 219 219 219 220 221 218
305 306 323 339 338 306 314 340 346 347 348 358 10 15 17 18 12 3 357 353 350 355 6 13 7 357 356 359 359 358 352 341 334 332 329 323 322 324 319 307 302 302 291 285 292 301 304 299 278 259 251 229 204 184 174 179 189 192 191 190 187 184 184 187 191 193 194 194 194 196 198 201 203 201 196 194 197 203 203 201 202 205 207 208 208 209 211
306 309 316 322 319 310 314 324 325 322 323 327 330 331 333 340 347 351 352 352 356 353 348 354 358 351 343 343 342 340 338 336 333 329 322 315 312 313 306 297 295 294 276 260 270 284 292 261 209 236 237 211 203 191 171 173 183 182 180 185 184 178 178 181 184 189 191 190 190 192 194 197 199 199 194 187 182 184 186 186 187 187 188 194 196 197 204
295 299 301 303 303 302 305 309 306 303 305 308 307 309 316 328 335 341 346 351 356 350 338 340 345 335 324 330 331 325 321 321 318 313 306 299 300 306 300 286 274 265 252 242 244 239 146 135 155 176 171 168 186 193 178 171 175 175 174 177 176 172 172 174 176 178 179 178 179 182 184 185 186 188 189 185 177 173 173 175 179 179 177 184 193 197 203
285 289 292 293 290 290 294 297 293 289 292 298 299 298 301 308 312 320 327 328 331 332 331 335 336 320 309 318 324 320 318 314 305 298 295 290 292 297 290 274 257 246 234 211 178 145 143 167 184 204 203 180 179 190 186 177 173 171 173 176 175 171 170 170 169 167 166 167 167 166 165 167 168 169 173 177 176 173 169 166 165 166 169 173 179 183 189
278 278 281 286 283 278 276 279 281 281 283 286 290 293 293 294 299 308 313 316 322 324 322 326 329 314 306 313 318 318 318 314 305 300 295 288 290 294 284 265 240 217 200 184 170 160 166 187 199 208 199 186 181 179 177 176 174 168 166 169 171 171 173 173 166 159 156 157 159 158 153 151 151 149 146 146 149 155 158 158 156 156 160 166 169 171 177
269 268 264 261 264 265 264 262 268 274 277 277 280 288 294 297 299 303 306 311 319 321 321 328 331 315 306 313 317 319 320 315 305 298 291 281 283 288 276 251 221 197 188 186 173 157 154 169 162 121 119 142 157 160 157 157 158 158 158 159 160 162 167 169 161 152 148 146 144 142 139 136 133 132 131 130 130 133 136 141 146 150 155 163 168 165 162
259 258 255 252 254 258 260 258 259 262 269 273 273 280 293 301 303 303 305 309 313 316 322 332 329 311 307 310 312 317 319 313 300 293 289 283 280 274 256 230 202 182 177 174 168 160 158 157 144 126 119 123 130 140 143 141 141 144 148 151 155 156 156 156 153 148 145 143 141 139 138 135 132 130 129 128 131 135 134 134 137 136 130 118 106 115 115
256 249 246 246 249 252 253 253 253 254 260 267 269 274 284 292 296 299 303 307 309 310 317 325 321 309 307 308 309 313 313 305 293 287 285 284 280 267 243 212 190 180 173 165 160 160 161 158 147 134 130 132 135 141 147 145 142 143 144 144 146 148 147 145 143 141 138 136 136 135 135 135 136 136 133 129 127 125 118 120 120 101 69 50 44 53 54
259 247 240 239 239 241 243 245 246 247 250 254 259 263 268 274 282 289 295 300 302 304 311 318 313 304 303 305 310 316 311 297 284 273 269 276 276 257 229 200 184 179 171 160 153 151 153 155 150 138 132 135 140 143 149 153 148 142 135 128 124 126 129 130 129 128 126 126 127 127 127 127 130 132 130 128 125 118 110 113 113 89 67 82 103 89 47
247 236 234 232 230 232 236 238 238 239 241 244 249 251 253 258 266 273 281 287 290 293 302 304 293 284 291 296 298 311 307 279 261 250 247 264 281 238 210 192 181 174 165 152 142 138 140 142 140 134 131 135 135 130 129 139 145 139 133 130 127 127 128 129 129 128 128 129 131 133 130 127 127 128 128 129 131 128 120 117 113 100 92 94 84 60 31
322 235 225 222 221 223 227 230 231 231 232 236 239 242 246 251 255 260 267 272 275 279 286 285 263 246 248 244 212 182 207 214 201 188 196 116 80 97 152 165 162 155 146 136 127 128 135 134 127 125 128 133 135 131 125 127 132 132 131 134 135 131 129 130 133 134 132 128 129 132 133 130 129 129 130 134 140 140 130 120 115 107 99 92 83 68 50
30 28 222 218 218 217 219 223 226 226 227 231 234 237 242 245 248 253 256 256 260 268 269 243 172 163 168 164 151 147 160 158 125 99 91 94 89 81 88 108 122 127 126 120 113 118 130 132 123 120 123 125 126 127 127 129 132 132 130 131 130 126 124 126 130 133 130 126 126 131 134 135 134 131 131 137 143 145 143 138 134 126 118 113 110 105 91
45 50 61 130 200 213 217 220 221 220 221 225 230 235 239 242 245 249 249 248 254 258 241 184 146 139 142 143 136 129 121 110 102 99 96 95 92 84 76 73 81 102 113 109 98 100 115 123 119 120 124 123 118 115 117 122 127 128 127 127 124 121 121 123 125 125 125 127 133 136 135 137 140 139 139 147 152 153 156 161 163 163 158 149 144 143 146
47 51 55 61 70 89 158 209 221 224 225 228 231 235 240 244 244 242 242 246 246 229 189 159 145 136 130 124 119 114 107 100 98 101 100 97 97 96 80 56 44 69 96 99 89 87 100 111 115 119 121 118 114 113 113 115 117 117 119 122 121 118 120 123 123 123 124 128 134 136 134 140 150 151 153 160 163 163 168 174 182 191 194 194 200 209 220
45 49 52 55 60 65 67 70 86 138 182 205 223 234 238 237 235 235 237 233 204 171 155 148 140 129 121 115 112 109 105 100 98 98 98 98 104 107 94 63 37 48 72 82 79 81 92 103 112 118 117 111 109 113 116 118 117 116 115 116 115 114 117 120 120 120 120 120 123 129 139 157 173 179 184 188 187 187 190 195 205 217 225 238 253 259 266
44 49 52 54 57 59 59 61 67 73 80 92 105 115 121 126 142 174 187 173 148 138 138 137 129 119 113 111 108 105 101 99 99 98 97 98 102 103 93 71 48 47 57 65 70 78 88 98 105 109 109 106 105 109 114 119 121 119 116 114 113 113 114 114 113 110 109 109 111 114 120 127 133 132 128 129 130 128 127 124 124 309 321 318 315 319 319
46 49 52 53 56 57 56 58 61 63 65 72 77 76 77 82 87 95 108 114 110 110 116 120 117 110 107 105 102 99 97 97 98 96 95 94 94 93 88 77 63 58 61 66 70 77 85 94 99 98 98 101 105 107 110 115 120 120 117 118 118 117 115 113 110 106 104 105 106 103 101 100 98 95 91 89 86 82 76 68 60 53 46 39 35 30 14
50 51 52 53 54 56 56 56 58 59 61 65 68 68 69 74 76 78 85 91 91 94 102 108 107 102 99 97 95 93 93 94 96 96 95 96 95 93 89 82 74 70 71 72 73 75 81 90 94 92 89 92 97 101 107 114 120 120 118 119 119 118 116 114 111 109 108 107 104 98 95 94 91 87 84 81 76 72 68 63 60 58 57 57 59 57 44
53 54 56 56 56 57 57 56 57 59 61 63 65 65 65 68 70 72 75 79 81 83 88 93 94 92 90 90 89 89 88 88 88 90 91 91 89 87 82 78 75 75 76 77 77 78 79 83 87 89 88 88 88 92 100 111 118 119 118 117 117 117 115 111 107 105 103 100 95 91 90 91 91 89 86 81 76 72 69 65 61 59 58 57 56 53 45
54 55 57 59 58 58 58 57 57 59 60 60 61 63 63 62 63 66 71 74 75 76 78 80 83 85 84 83 83 83 81 80 80 80 78 76 76 78 77 74 72 75 79 80 81 81 80 80 83 87 90 91 91 92 94 97 99 101 103 104 105 105 105 104 101 100 98 96 93 89 86 85 86 87 87 86 82 79 77 72 67 61 57 54 53 51 48
59 58 58 60 60 60 60 59 59 60 61 60 60 61 63 62 59 60 63 66 68 70 72 73 74 77 79 79 78 76 75 74 74 75 73 71 69 71 73 72 69 68 70 72 75 78 80 82 85 88 92 94 95 96 95 93 91 90 90 91 91 92 94 95 96 97 98 98 96 93 90 86 84 83 84 85 86 85 83 79 76 71 65 60 57 55 54
65 64 64 65 65 64 64 64 64 64 65 64 63 62 62 61 59 58 59 61 63 65 67 68 69 71 74 75 75 75 74 73 72 72 74 74 71 67 67 70 71 69 68 68 70 72 76 81 85 90 94 96 97 97 97 95 92 89 88 86 86 86 88 89 90 91 92 92 91 90 89 86 84 81 81 82 84 85 84 82 80 78 76 73 69 63 58
68 69 71 71 71 70 69 69 69 69 69 67 65 65 65 64 63 62 62 61 61 62 64 66 67 69 71 72 73 74 74 73 71 68 70 72 73 71 68 69 71 73 72 71 69 68 69 72 77 82 86 91 95 97 98 97 96 95 93 91 89 87 84 83 82 83 84 84 84 84 83 81 80 78 76 76 77 77 76 76 75 74 73 73 72 68 64
60 69 74 75 74 75 75 74 74 75 74 71 69 68 67 66 66 66 66 65 64 62 62 64 66 68 70 73 75 75 75 75 73 69 67 69 73 76 75 74 73 74 74 73 72 70 68 69 72 76 80 83 87 92 95 97 98 98 98 97 96 94 91 88 85 82 79 78 77 76 75 75 75 73 70 69 69 69 69 69 68 67 65 64 64 64 64
50 55 62 68 70 72 76 78 78 78 78 77 75 73 71 70 70 69 68 67 67 65 63 63 65 67 68 70 73 76 77 77 76 76 75 74 73 74 75 77 79 80 80 80 79 78 77 75 74 76 80 82 84 87 91 94 94 93 93 94 94 93 93 94 92 89 85 81 76 72 68 66 65 64 63 61 60 58 58 59 58 58 58 58 57 57 58
53 52 54 58 61 65 72 77 79 78 78 78 77 76 75 74 73 72 69 69 69 69 67 66 65 67 69 69 69 71 74 76 76 77 79 80 78 75 73 75 78 82 84 83 81 80 81 81 81 80 81 81 80 79 82 88 90 90 88 87 86 84 82 81 81 81 79 74 70 67 64 59 55 55 56 55 52 49 48 48 48 48 50 50 49 48 50
53 59 59 57 57 61 67 71 72 74 75 74 73 73 73 71 70 68 65 64 67 71 73 72 71 70 70 69 69 69 71 74 74 74 75 78 80 79 77 74 73 75 79 81 80 79 79 80 82 84 86 85 83 80 79 83 89 91 89 87 86 85 83 80 79 78 77 73 69 67 64 61 59 57 56 54 49 41 35 31 29 29 30 35 38 40 43
52 61 65 63 60 59 61 64 66 68 69 68 67 69 71 72 70 66 61 61 65 66 65 68 75 79 75 71 71 74 77 79 81 81 79 76 73 70 70 73 75 75 76 78 81 82 80 77 76 80 84 86 85 82 79 80 83 88 90 89 88 87 85 81 77 77 79 82 81 76 70 66 65 63 60 55 47 37 29 25 23 19 15 17 23 30 36
53 59 67 69 63 57 56 60 64 66 67 65 62 60 62 64 64 62 62 67 72 67 57 57 71 85 85 78 75 78 81 83 86 90 90 86 80 77 77 77 76 73 72 73 76 80 80 77 74 75 79 81 81 79 78 78 79 81 84 88 89 88 87 85 81 76 74 76 78 77 73 68 65 63 61 56 47 36 29 25 24 21 18 16 19 23 28
55 57 63 66 62 58 58 60 61 63 64 63 61 59 56 54 53 54 57 64 72 72 63 59 63 73 80 79 78 78 76 72 70 74 79 80 81 83 84 80 74 71 74 76 76 77 79 81 81 80 81 82 82 81 79 78 77 77 80 83 84 83 82 84 85 82 76 71 70 71 73 71 66 63 58 51 40 33 29 27 26 25 22 16 13 14 19